Retour au catalogue

FENGYUN 1C DEB

ActifPO
NORAD 30724·DEBRIS·🇨🇳 China

Lancé May 10, 1999 depuis Taiyuan Satellite Launch Center

Loading…

Prochains Passages (prochaines 24 heures)

TLE

FraisSource: Space-Track

Époque: Sep 13, 2026, 09:26 UTC

1 30724U 99025ASJ 26256.39328910  .00000544  00000-0  18942-3 0  9997
2 30724  99.3018 108.6932 0092683 180.0186 306.6544 14.37585926 23912

Suivez FENGYUN 1C DEB en temps réel avec AllMySat

Download on the App Store